sat.trackr.live / text

‹ back to catalog

STARLINK-32724

NORAD 62441 · 2024-251K

PAYLOAD ACTIVE UNKNOWN

§ Identity

Operator
Country
US
Launch date
2024-12-29
Launch site
AFWTR
Launch vehicle
Mass (kg)
RCS (m²)

Purposes: comms

External: N2YO · Heavens-Above · Gunter

§ Orbital elements

Epoch: 2026-09-21T20:16:58.178784Z

Period
93.85 min
Inclination
53.1597°
Eccentricity
0.0001291
Mean motion
15.34399536 rev/d
Perigee alt
461.8 km
Apogee alt
463.6 km
Semi-major
6,840.8 km
B*
2.8215e-4
RAAN
141.1404°
Arg perigee
65.3477°
Mean anomaly
294.7660°
Rev number
9,786

§ Raw data

STARLINK-327241 62441U 24251K   26264.84511781  .00009168  00000+0  28215-3 0  99902 62441  53.1597 141.1404 0001291  65.3477 294.7660 15.34399536 97861

JSON: /api/v1/satellites/62441 · /tle

For live sub-satellite position, see the globe view (requires WebGL).

§ Visibility from observer

Set your observer location to see the next 7 days of passes ≥ 10°. The values pass through the URL so the page stays shareable.

No JS? Fill the form by hand. The geolocation button needs JavaScript.